User: anonymous   Login
Location: Unspecified
(0.0000°N, 0.0000°E)
Time: 08:30:30
(UTC+00:00)
Language:

OPTUS D1 - Orbit

View from above orbital plane
View from above orbital plane
View from above satellite
View from above satellite

Ground track
Ground track

The orbit data is extracted from the following two-line orbital elements,

1 29495U 06043B   14296.69630802  .00000000  00000-0  10000-3 0  6179
2 29495 000.0694 072.7770 0003553 135.4238 234.5047 01.00268059 29481
Epoch (UTC): 23 October 2014 16:42:41
Eccentricity: 0.0003553
inclination: 0.0694°
perigee height: 35772 km
apogee height: 35802 km
right ascension of ascending node: 72.7770°
argument of perigee: 135.4238°
revolutions per day: 1.00268059
mean anomaly at epoch: 234.5047°
orbit number at epoch: 2948

The dashed part of the orbit path shows where the satellite is in the earth's shadow,  

DLR